Location: Cactus School
(34.5700°N, 118.0931°W)
Time: 04:21:32
(UTC-07:00)

Transit 4A - Pass Details

Date: 19 April 2024
Orbit: 871 x 971 km, 66.8° (Epoch: 20 May)

Event Time Altitude Azimuth Distance (km) Brightness Sun altitude
Rises 14:45:23 0° 248° (WSW) 3,541 11.5 55.4°
Reaches altitude 10° 14:48:41 10° 265° (W) 2,583 10.9 54.8°
Maximum altitude 14:52:50 19° 309° (NW) 1,989 10.1 54.1°
Drops below altitude 10° 14:56:57 10° 354° (N) 2,549 10.2 53.4°
Sets 15:00:12 0° 12° (NNE) 3,479 10.6 52.8°
